EW7351 Weather Reports


time (UTC)temp
F
wind
direction
speed
knots
gust
knots
rain 1hr
in
rain 24hr
in
rain mn
in
humidity
%
barometer
mb
20220811230542 96 349 3.5 10.4 0.00 0.77 0.01 39 1010.4
20220811225750 97 60 3.5 7.8 0.00 0.82 0.01 38 1010.5
20220811225640 96 52 2.6 7.8 0.00 0.79 0.01 38 1010.4
20220811225019 97 10 3.5 8.7 0.00 0.83 0.01 38 1010.5
20220811224520 97 0 2.6 7.0 0.00 0.85 0.01 37 1010.4
20220811223910 97 55 2.6 8.7 0.00 0.85 0.01 38 1010.4
20220811222918 97 70 1.7 6.1 0.00 0.85 0.01 37 1010.4
20220811222411 97 359 0.9 3.5 0.00 0.85 0.01 38 1010.4
20220811221914 97 59 1.7 6.1 0.00 0.85 0.01 39 1010.5
20220811221910 97 44 1.7 6.1 0.00 0.85 0.01 39 1010.4
20220811220907 97 358 1.7 6.1 0.00 0.85 0.01 39 1010.7
20220811220637 96 85 1.7 7.8 0.00 0.85 0.01 40 1010.7
20220811220137 96 76 2.6 7.8 0.00 0.85 0.01 41 1010.8
20220811215403 97 333 2.6 7.8 0.00 0.87 0.01 41 1010.8
20220811214903 97 131 1.7 7.0 0.00 1.00 0.01 41 1011.0
20220811214635 97 217 0.9 5.2 0.00 1.06 0.01 42 1010.8
20220811214512 97 13 1.7 5.2 0.00 1.22 0.01 42 1011.1
20220811214012 96 65 0.9 5.2 0.00 1.53 0.01 43 1011.2
20220811212904 96 158 0.9 6.1 0.00 1.66 0.01 43 1011.2
20220811212408 96 124 1.7 5.2 0.00 1.71 0.01 44 1011.4
20220811212404 95 326 1.7 6.1 0.00 1.71 0.01 43 1011.3
20220811211409 96 15 1.7 5.2 0.00 1.71 0.01 44 1011.6
20220811211405 96 64 1.7 4.3 0.00 1.71 0.01 44 1011.4
20220811210404 95 61 0.9 7.0 0.00 1.71 0.01 46 1011.6
20220811210136 95 108 1.7 7.8 0.00 1.71 0.01 46 1011.8
20220811205405 95 321 2.6 7.8 0.00 1.71 0.01 46 1011.8
20220811205138 96 117 1.7 7.0 0.00 1.71 0.01 45 1011.7
20220811205011 95 275 2.6 7.0 0.00 1.71 0.01 45 1011.8
20220811204138 95 56 2.6 7.0 0.00 1.71 0.01 45 1012.0
20220811204016 95 330 0.9 5.2 0.00 1.71 0.01 46 1012.1
20220811204012 96 323 1.7 6.1 0.00 1.71 0.01 45 1011.9
20220811202905 96 52 1.7 4.3 0.00 1.71 0.01 46 1012.0
20220811201907 95 333 1.7 7.0 0.00 1.71 0.01 47 1012.2
20220811201902 95 79 1.7 7.0 0.00 1.71 0.01 48 1012.1
20220811201240 94 270 1.7 7.0 0.00 1.71 0.01 48 1012.3
20220811201134 95 34 1.7 7.0 0.00 1.71 0.01 48 1012.2
20220811200129 94 88 1.7 5.2 0.00 1.71 0.01 49 1012.4
20220811195359 94 345 2.6 7.0 0.00 1.71 0.01 49 1012.5
20220811194858 93 31 2.6 7.0 0.00 1.71 0.01 49 1012.6
20220811194357 94 63 2.6 5.2 0.00 1.71 0.01 48 1012.6
20220811193903 93 96 2.6 6.1 0.00 1.71 0.01 52 1012.9
20220811193858 94 35 1.7 5.2 0.00 1.71 0.01 50 1012.8
20220811193738 93 15 1.7 6.1 0.00 1.71 0.01 52 1013.1
20220811193129 93 355 1.7 6.1 0.00 1.71 0.01 50 1013.0
20220811191858 93 355 2.6 7.0 0.00 1.71 0.01 51 1013.2
20220811191358 93 343 2.6 7.0 0.00 1.71 0.01 49 1013.4
20220811191237 93 32 1.7 9.6 0.00 1.71 0.01 52 1013.4
20220811191130 93 32 1.7 9.6 0.00 1.71 0.01 51 1013.4
20220811190237 93 27 0.9 6.1 0.00 1.71 0.01 52 1013.5
20220811185858 93 20 1.7 5.2 0.00 1.71 0.01 51 1013.5
20220811185628 93 169 0.9 6.1 0.00 1.71 0.01 52 1013.5
20220811184629 93 353 0.9 3.5 0.00 1.71 0.01 53 1013.6
20220811183858 92 311 0.9 4.3 0.00 1.71 0.01 52 1013.6
20220811183629 92 9 0.9 4.3 0.00 1.71 0.01 52 1013.7
20220811183134 91 48 0.9 6.1 0.00 1.71 0.01 55 1013.9
20220811182859 92 73 0.9 6.1 0.00 1.71 0.01 53 1013.9
20220811181858 91 94 1.7 5.2 0.00 1.71 0.01 55 1014.1
20220811181358 91 194 1.7 5.2 0.00 1.71 0.01 56 1014.1
20220811180858 91 54 1.7 5.2 0.00 1.71 0.01 55 1014.2
20220811180401 91 72 0.9 6.1 0.00 1.71 0.01 57 1014.2
20220811175900 90 75 0.9 6.1 0.00 1.71 0.01 57 1014.3
20220811175633 90 41 0.9 2.6 0.00 1.71 0.01 57 1014.4
20220811175509 89 18 1.7 7.0 0.00 1.71 0.01 60 1014.5
20220811175355 90 323 0.9 7.0 0.00 1.71 0.01 60 1014.4
20220811174117 89 27 0.9 4.3 0.00 1.71 0.01 61 1014.5
20220811173346 89 63 1.7 5.2 0.00 1.71 0.01 62 1014.6
20220811172844 89 356 1.7 5.2 0.00 1.71 0.01 61 1014.7
20220811172615 89 314 0.9 4.3 0.00 1.71 0.01 63 1014.6
20220811171844 88 341 1.7 6.1 0.00 1.71 0.01 64 1014.7
20220811171341 88 344 0.9 6.1 0.00 1.71 0.01 65 1014.7
20220811170834 87 105 1.7 5.2 0.00 1.71 0.01 66 1014.7
20220811170608 87 62 1.7 6.1 0.00 1.71 0.01 65 1014.8
20220811170333 87 83 1.7 6.1 0.00 1.71 0.01 65 1014.7
20220811165329 87 58 1.7 5.2 0.00 1.71 0.01 67 1014.8
20220811165100 87 72 1.7 6.1 0.00 1.71 0.01 64 1014.9
20220811164936 86 77 2.6 6.1 0.00 1.71 0.01 67 1014.9
20220811163826 86 17 2.6 7.0 0.00 1.71 0.01 67 1015.0
20220811163332 86 25 1.7 7.0 0.00 1.71 0.01 69 1014.9
20220811163327 86 42 1.7 7.0 0.00 1.71 0.01 68 1014.9
20220811162327 86 70 1.7 7.0 0.00 1.71 0.01 69 1014.9
20220811161826 86 79 0.9 6.1 0.00 1.71 0.01 69 1014.9
20220811161327 86 111 0.9 4.3 0.00 1.71 0.01 70 1014.9
20220811160826 86 60 0.9 4.3 0.00 1.71 0.01 70 1014.9
20220811160325 86 86 0.9 3.5 0.00 1.71 0.01 71 1014.9
20220811160056 85 32 1.7 5.2 0.00 1.71 0.01 71 1014.9
20220811155600 85 64 1.7 6.1 0.00 1.71 0.01 71 1014.8
20220811155325 85 346 1.7 5.2 0.00 1.71 0.01 73 1014.8
20220811154931 85 343 0.9 4.3 0.00 1.71 0.01 73 1014.8
20220811154324 85 0 0.9 6.1 0.00 1.71 0.01 70 1014.8
20220811153323 84 67 0.9 5.2 0.00 1.71 0.01 74 1014.7
20220811152822 84 15 1.7 5.2 0.00 1.71 0.01 74 1014.7
20220811152323 84 321 0.9 4.3 0.00 1.71 0.01 77 1014.7
20220811152046 84 317 0.0 2.6 0.00 1.71 0.01 78 1014.7
20220811151316 83 354 0.9 3.5 0.00 1.71 0.01 78 1014.7
20220811151312 83 46 0.9 3.5 0.00 1.71 0.01 77 1014.6
20220811150306 83 314 0.9 3.5 0.00 1.71 0.01 79 1014.7
20220811145809 83 44 0.0 1.7 0.00 1.71 0.01 79 1014.7
20220811145306 83 41 0.0 1.7 0.00 1.71 0.01 79 1014.9
20220811144808 82 25 0.0 1.7 0.00 1.71 0.01 80 1014.9
20220811144804 83 76 0.0 0.9 0.00 1.71 0.01 80 1014.9
20220811143909 80 21 0.0 2.6 0.00 1.71 0.01 85 1014.8
20220811143803 81 23 0.0 2.6 0.00 1.71 0.01 81 1014.8
20220811143531 81 82 0.0 2.6 0.00 1.71 0.01 82 1014.8
20220811142800 81 352 0.0 1.7 0.00 1.71 0.01 83 1014.8
20220811141802 80 17 0.0 2.6 0.00 1.71 0.01 83 1014.8
20220811141758 80 359 0.0 1.7 0.00 1.71 0.01 85 1014.8
20220811140753 80 359 0.0 1.7 0.00 1.71 0.01 83 1014.8
20220811140528 80 354 0.0 0.9 0.00 1.71 0.01 85 1014.8
20220811135755 79 19 0.0 0.0 0.00 1.71 0.01 88 1014.6
20220811135750 80 354 0.0 0.9 0.00 1.71 0.01 84 1014.8
20220811135632 79 19 0.0 0.0 0.00 1.71 0.01 86 1014.7
20220811135249 80 19 0.0 0.0 0.00 1.71 0.01 86 1014.7
20220811133744 78 19 0.0 0.0 0.00 1.71 0.01 90 1014.6
20220811133514 77 19 0.0 0.0 0.00 1.71 0.01 89 1014.6
20220811132743 77 30 0.0 0.0 0.00 1.71 0.01 90 1014.5
20220811132354 76 30 0.0 0.0 0.00 1.71 0.01 95 1014.5
20220811132243 77 30 0.0 0.0 0.00 1.71 0.01 93 1014.5
20220811132015 76 30 0.0 0.0 0.00 1.71 0.01 94 1014.5
20220811130743 75 30 0.0 0.0 0.00 1.71 0.01 96 1014.6
20220811130247 74 30 0.0 0.0 0.00 1.71 0.01 97 1014.6
20220811130242 74 30 0.0 0.0 0.00 1.71 0.01 96 1014.6
20220811130120 74 30 0.0 0.0 0.00 1.71 0.01 97 1014.6
20220811125956 74 260 0.0 0.0 0.00 1.71 0.01 97 1014.6
20220811124732 72 260 0.0 0.0 0.00 1.71 0.01 97 1014.5
20220811124223 73 260 0.0 0.0 0.00 1.71 0.01 97 1014.6
20220811123722 73 260 0.0 0.0 0.00 1.71 0.01 97 1014.6
20220811122725 72 260 0.0 0.0 0.00 1.71 0.01 97 1014.6
20220811122719 72 260 0.0 0.0 0.00 1.71 0.01 97 1014.6
20220811122220 72 260 0.0 0.0 0.00 1.71 0.01 97 1014.6
20220811121219 71 260 0.0 0.0 0.00 1.71 0.01 97 1014.6
20220811120720 71 260 0.0 0.0 0.00 1.71 0.01 97 1014.6
20220811120220 71 260 0.0 0.0 0.00 1.71 0.01 97 1014.6
20220811115720 71 260 0.0 0.0 0.00 1.71 0.01 97 1014.6
20220811115450 71 260 0.0 0.0 0.00 1.71 0.01 97 1014.5
20220811114719 71 260 0.0 0.0 0.00 1.71 0.01 97 1014.5
20220811114219 71 260 0.0 0.0 0.00 1.71 0.01 97 1014.5
20220811113719 72 260 0.0 0.0 0.00 1.71 0.01 97 1014.6
20220811113219 72 260 0.0 0.0 0.00 1.71 0.01 97 1014.5
20220811112720 72 260 0.0 0.0 0.00 1.71 0.01 97 1014.5
20220811112715 72 260 0.0 0.0 0.00 1.71 0.01 97 1014.6
20220811111715 72 260 0.0 0.0 0.00 1.71 0.01 97 1014.4
20220811111443 72 260 0.0 0.0 0.00 1.71 0.01 97 1014.4
20220811110711 72 260 0.0 0.0 0.00 1.71 0.01 97 1014.4
20220811110446 72 261 0.0 0.0 0.00 1.71 0.01 97 1014.3
20220811110211 72 261 0.0 0.0 0.00 1.71 0.01 97 1014.4
20220811105211 72 261 0.0 0.0 0.00 1.71 0.01 97 1014.3
20220811104711 72 261 0.0 0.0 0.00 1.71 0.01 97 1014.3
20220811104212 72 261 0.0 0.0 0.00 1.71 0.01 97 1014.3
20220811103711 72 261 0.0 0.0 0.00 1.71 0.01 97 1014.3
20220811103212 72 261 0.0 0.0 0.00 1.71 0.01 97 1014.3
20220811102943 72 261 0.0 0.0 0.00 1.71 0.01 97 1014.2
20220811102207 72 261 0.0 0.0 0.00 1.71 0.01 97 1014.1
20220811101707 72 261 0.0 0.0 0.00 1.71 0.01 97 1014.1
20220811101211 72 261 0.0 0.0 0.00 1.71 0.01 97 1014.1
20220811101207 72 261 0.0 0.0 0.00 1.71 0.01 97 1014.1
20220811100547 72 261 0.0 0.0 0.00 1.71 0.01 97 1014.1
20220811100211 72 261 0.0 0.0 0.00 1.71 0.01 97 1014.1
20220811100207 72 261 0.0 0.0 0.00 1.71 0.01 97 1014.1
20220811095207 72 261 0.0 0.0 0.00 1.71 0.01 97 1014.1
20220811094200 72 261 0.0 0.0 0.00 1.71 0.01 97 1014.1
20220811093651 72 261 0.0 0.0 0.00 1.71 0.01 97 1014.1
20220811093151 72 261 0.0 0.0 0.00 1.71 0.01 97 1014.1
20220811092650 72 261 0.0 0.0 0.00 1.71 0.01 97 1014.1
20220811092149 72 147 0.0 0.0 0.00 1.71 0.01 97 1014.1
20220811091649 72 147 0.0 0.0 0.00 1.71 0.01 97 1014.1
20220811091147 72 147 0.0 0.0 0.00 1.71 0.01 97 1014.3
20220811090645 72 147 0.0 0.0 0.00 1.71 0.01 97 1014.3
20220811090144 72 147 0.0 0.0 0.00 1.71 0.01 97 1014.2
20220811085920 72 147 0.0 0.0 0.00 1.71 0.01 97 1014.2
20220811085643 72 147 0.0 0.0 0.00 1.71 0.01 97 1014.3
20220811084911 72 147 0.0 0.0 0.00 1.71 0.01 97 1014.2
20220811084142 72 147 0.0 0.0 0.00 1.71 0.01 97 1014.3
20220811083642 72 147 0.0 0.0 0.00 1.71 0.01 97 1014.3
20220811083140 72 147 0.0 0.0 0.00 1.71 0.01 97 1014.2
20220811082641 72 147 0.0 0.0 0.00 1.71 0.01 97 1014.2
20220811082413 72 147 0.0 0.0 0.00 1.71 0.01 97 1014.1
20220811081912 72 147 0.0 0.0 0.00 1.71 0.01 97 1014.2
20220811081141 72 147 0.0 0.0 0.00 1.71 0.01 97 1014.2
20220811080641 72 147 0.0 0.0 0.00 1.71 0.01 97 1014.2
20220811080140 72 147 0.0 0.0 0.00 1.71 0.01 97 1014.2
20220811075646 72 147 0.0 0.0 0.00 1.71 0.01 97 1014.3
20220811075518 72 147 0.0 0.0 0.00 1.71 0.01 97 1014.2
20220811075411 72 147 0.0 0.0 0.00 1.71 0.01 97 1014.3
20220811074412 72 147 0.0 0.0 0.00 1.71 0.01 97 1014.2
20220811073644 72 147 0.0 0.0 0.00 1.71 0.01 97 1014.1
20220811073414 72 147 0.0 0.0 0.00 1.71 0.01 97 1014.1
20220811072641 72 147 0.0 0.0 0.00 1.71 0.01 97 1014.1
20220811072141 73 147 0.0 0.0 0.00 1.71 0.01 98 1014.1
20220811072019 73 147 0.0 0.0 0.00 1.71 0.01 98 1014.2
20220811071912 73 147 0.0 0.0 0.00 1.71 0.01 98 1014.2
20220811070642 73 147 0.0 0.0 0.00 1.71 0.01 98 1014.2
20220811070141 73 147 0.0 0.0 0.00 1.71 0.01 98 1014.2
20220811065912 73 147 0.0 0.0 0.00 1.71 0.01 97 1014.3
20220811065750 73 147 0.0 0.0 0.00 1.71 0.01 97 1014.3
20220811065251 73 147 0.0 0.0 0.00 1.71 0.01 97 1014.3
20220811064137 73 147 0.0 0.0 0.00 1.71 0.01 97 1014.4
20220811063908 73 147 0.0 0.0 0.00 1.71 0.01 97 1014.4
20220811063748 73 147 0.0 0.0 0.00 1.71 0.01 97 1014.5
20220811062635 73 147 0.0 0.0 0.00 1.71 0.01 97 1014.5
20220811062135 73 147 0.0 0.0 0.00 1.71 0.01 97 1014.5
20220811061907 73 147 0.0 0.0 0.00 1.71 0.01 97 1014.5
20220811061407 73 147 0.0 0.0 0.00 1.71 0.01 97 1014.5
20220811060636 73 147 0.0 0.0 0.01 1.71 0.01 97 1014.6
20220811060139 73 147 0.0 0.0 0.01 1.71 0.01 97 1014.6
20220811060135 73 147 0.0 0.0 0.01 1.71 0.01 97 1014.6
20220811055403 73 147 0.0 0.0 0.01 1.71 0.01 97 1014.7
20220811054630 73 147 0.0 0.0 0.01 1.71 0.01 97 1014.6
20220811054136 72 147 0.0 0.0 0.01 1.71 0.01 97 1014.6
20220811054132 72 147 0.0 0.0 0.01 1.71 0.01 97 1014.7
20220811053631 72 147 0.0 0.0 0.01 1.71 0.01 97 1014.6
20220811053238 73 147 0.0 0.0 0.01 1.71 0.01 97 1014.6
20220811053007 73 147 0.0 0.0 0.01 1.71 0.01 97 1014.6
20220811051627 73 147 0.0 0.0 0.01 1.71 0.01 97 1014.6
20220811051359 73 147 0.0 0.0 0.01 1.71 0.01 97 1014.6
20220811050635 73 147 0.0 0.0 0.00 1.70 0.00 97 1014.6
20220811050625 73 147 0.0 0.0 0.00 1.70 0.00 97 1014.6
20220811050123 73 147 0.0 0.0 0.00 1.70 1.70 97 1014.6
20220811050000 73 147 0.0 0.0 0.00 1.70 1.70 97 1014.6
20220811045838 73 147 0.0 0.0 0.00 1.70 1.70 97 1014.5
20220811044120 73 147 0.0 0.0 0.00 1.70 1.70 97 1014.5
20220811043851 73 147 0.0 0.0 0.00 1.70 1.70 97 1014.6
20220811043352 73 147 0.0 0.9 0.00 1.70 1.70 97 1014.6
20220811042851 73 147 0.0 1.7 0.00 1.70 1.70 97 1014.7
20220811042356 73 150 0.0 0.0 0.00 1.70 1.70 97 1014.7
20220811042120 73 120 0.0 1.7 0.00 1.70 1.70 97 1014.7
20220811041727 73 150 0.0 0.0 0.00 1.70 1.70 97 1014.7
20220811040620 74 140 0.0 0.0 0.00 1.70 1.70 97 1014.7
20220811040120 74 140 0.0 0.9 0.00 1.70 1.70 97 1014.7
20220811035623 74 163 0.0 0.9 0.00 1.70 1.70 97 1014.8
20220811035123 74 120 0.0 3.5 0.00 1.70 1.70 97 1014.7
20220811034853 74 155 0.0 3.5 0.00 1.70 1.70 97 1014.6
20220811034730 74 103 0.0 1.7 0.00 1.70 1.70 97 1014.8
20220811033854 74 111 0.0 2.6 0.00 1.70 1.70 97 1014.7
20220811033618 74 122 0.0 2.6 0.00 1.70 1.70 97 1014.6
20220811033223 74 92 0.0 0.9 0.00 1.70 1.70 97 1014.6
20220811032115 74 61 0.0 2.6 0.00 1.70 1.70 97 1014.6
20220811031614 74 58 0.0 2.6 0.00 1.70 1.70 97 1014.7
20220811031115 74 143 0.0 0.9 0.00 1.70 1.70 97 1014.5
20220811030615 74 98 0.0 0.0 0.00 1.70 1.70 97 1014.4
20220811030114 74 122 0.0 0.0 0.00 1.70 1.70 97 1014.1
20220811025842 74 122 0.0 0.0 0.00 1.70 1.70 97 1013.9
20220811025337 74 142 0.0 0.0 0.00 1.70 1.70 97 1013.8
20220811024606 74 124 0.0 0.9 0.00 1.70 1.70 97 1013.8
20220811024106 74 124 0.0 0.9 0.00 1.70 1.70 97 1013.6
20220811023606 75 161 0.0 0.0 0.00 1.70 1.70 97 1013.4
20220811023111 75 266 0.0 0.0 0.00 1.70 1.70 97 1013.2
20220811023106 75 328 0.0 0.0 0.00 1.70 1.70 97 1013.4
20220811022107 74 266 0.0 0.0 0.00 1.70 1.70 97 1013.1
20220811021605 74 266 0.0 0.0 0.00 1.70 1.70 97 1012.9
20220811021105 74 266 0.0 0.0 0.00 1.70 1.70 97 1012.8
20220811020606 74 266 0.0 0.0 0.00 1.70 1.70 97 1012.7
20220811020103 74 266 0.0 0.0 0.00 1.70 1.70 97 1012.7
20220811015833 74 266 0.0 0.0 0.00 1.70 1.70 96 1012.6
20220811015103 74 266 0.0 0.9 0.00 1.70 1.70 96 1012.6
20220811014833 74 266 0.0 0.9 0.00 1.70 1.70 96 1012.5
20220811014102 74 237 0.0 0.0 0.00 1.70 1.70 96 1012.5
20220811013833 74 237 0.0 0.0 0.00 1.70 1.70 96 1012.4
20220811013106 74 237 0.0 0.0 0.01 1.70 1.70 96 1012.5
20220811013102 74 237 0.0 0.0 0.00 1.70 1.70 96 1012.5
20220811012102 74 237 0.0 0.0 0.01 1.70 1.70 96 1012.5
20220811011602 74 237 0.0 0.0 0.01 1.70 1.70 96 1012.5
20220811011333 74 237 0.0 0.0 0.02 1.70 1.70 97 1012.5
20220811010603 74 237 0.0 0.0 0.04 1.70 1.70 96 1012.6
20220811010332 73 237 0.0 0.0 0.11 1.70 1.70 96 1012.8
20220811010057 71 260 0.0 0.9 0.76 1.70 1.70 95 1013.5
20220811005931 73 237 0.0 0.0 0.42 1.70 1.70 96 1012.8
20220811005215 71 260 0.0 0.0 0.76 1.70 1.70 95 1013.2
20220811005157 73 234 0.0 0.9 0.59 1.70 1.70 96 1012.7
20220811004656 72 249 0.0 0.9 0.75 1.70 1.70 96 1012.8
20220811004425 72 260 0.0 0.0 0.76 1.70 1.70 96 1012.9
20220811003435 71 261 0.0 2.6 0.75 1.69 1.70 94 1013.6
20220811002334 71 272 0.0 3.5 0.75 1.69 1.69 94 1013.9
20220811002058 71 244 0.0 3.5 0.75 1.69 1.69 94 1013.7
20220811001331 71 170 0.0 0.9 0.74 1.68 1.68 92 1013.9
20220811001207 72 170 0.9 3.5 0.72 1.66 1.66 91 1014.1
20220811000446 74 242 6.1 20.9 0.36 1.28 1.31 85 1015.6
20220811000329 72 230 3.5 20.9 0.65 1.59 1.61 89 1014.4
20220810235056 75 58 4.3 13.9 0.22 1.11 1.12 88 1015.3
20220810234826 76 113 2.6 9.6 0.07 0.95 0.96 89 1015.3
20220810234708 76 279 1.7 7.8 0.07 0.94 0.94 92 1015.3
20220810234703 75 65 0.0 0.0 0.08 0.94 0.94 93 1014.9
20220810233549 75 335 0.0 6.1 0.08 0.94 0.94 93 1015.4
20220810233045 75 19 0.0 0.9 0.08 0.94 0.94 93 1015.1
20220810232049 75 114 0.0 0.0 0.08 0.94 0.94 92 1014.9
20220810232044 75 114 0.0 0.0 0.08 0.94 0.94 93 1015.0
20220810231038 75 114 0.0 0.0 0.08 0.94 0.94 92 1014.7